TimeCST,TemperatureF,Dew PointF,Humidity,Sea Level PressureIn,VisibilityMPH,Wind Direction,Wind SpeedMPH,Gust SpeedMPH,PrecipitationIn,Events,Conditions,WindDirDegrees,DateUTC
12:15 AM,28.4,24.8,86,30.15,5.0,Calm,Calm,-,N/A,,Clear,0,2013-01-17 06:15:00
12:35 AM,28.4,24.8,86,30.16,5.0,Calm,Calm,-,N/A,,Clear,0,2013-01-17 06:35:00
12:55 AM,28.4,24.8,86,30.16,7.0,Calm,Calm,-,N/A,,Clear,0,2013-01-17 06:55:00
1:15 AM,26.6,24.8,93,30.16,7.0,Calm,Calm,-,N/A,,Clear,0,2013-01-17 07:15:00
1:35 AM,26.6,23.0,86,30.16,5.0,Calm,Calm,-,N/A,,Clear,0,2013-01-17 07:35:00
1:55 AM,26.6,23.0,86,30.16,5.0,Calm,Calm,-,N/A,,Clear,0,2013-01-17 07:55:00
2:15 AM,26.6,23.0,86,30.17,4.0,Calm,Calm,-,N/A,,Clear,0,2013-01-17 08:15:00
2:35 AM,26.6,23.0,86,30.16,3.0,Calm,Calm,-,N/A,,Clear,0,2013-01-17 08:35:00
2:55 AM,26.6,23.0,86,30.17,4.0,Calm,Calm,-,N/A,,Clear,0,2013-01-17 08:55:00
3:15 AM,26.6,23.0,86,30.17,5.0,Calm,Calm,-,N/A,,Scattered Clouds,0,2013-01-17 09:15:00
3:35 AM,26.6,23.0,86,30.16,7.0,Calm,Calm,-,N/A,,Scattered Clouds,0,2013-01-17 09:35:00
3:55 AM,26.6,23.0,86,30.15,10.0,NW,3.5,-,N/A,,Clear,310,2013-01-17 09:55:00
4:15 AM,26.6,24.8,93,30.14,7.0,Calm,Calm,-,N/A,,Clear,0,2013-01-17 10:15:00
4:35 AM,26.6,23.0,86,30.13,7.0,NW,3.5,-,N/A,,Clear,320,2013-01-17 10:35:00
4:55 AM,26.6,23.0,86,30.13,7.0,North,3.5,-,N/A,,Clear,350,2013-01-17 10:55:00
5:15 AM,28.4,24.8,86,30.14,10.0,NNW,3.5,-,N/A,,Clear,330,2013-01-17 11:15:00
5:35 AM,28.4,24.8,86,30.14,10.0,NNW,8.1,-,N/A,,Clear,330,2013-01-17 11:35:00
5:55 AM,30.2,26.6,86,30.16,10.0,Calm,Calm,-,N/A,,Clear,0,2013-01-17 11:55:00
6:15 AM,30.2,24.8,80,30.18,10.0,Calm,Calm,-,N/A,,Clear,0,2013-01-17 12:15:00
6:35 AM,28.4,24.8,86,30.18,10.0,Calm,Calm,-,N/A,,Clear,0,2013-01-17 12:35:00
6:55 AM,28.4,23.0,80,30.20,10.0,Calm,Calm,-,N/A,,Mostly Cloudy,0,2013-01-17 12:55:00
7:15 AM,30.2,24.8,80,30.21,10.0,ESE,3.5,-,N/A,,Overcast,120,2013-01-17 13:15:00
7:35 AM,32.0,26.6,80,30.22,10.0,SE,3.5,-,N/A,,Overcast,130,2013-01-17 13:35:00
7:55 AM,33.8,28.4,81,30.23,10.0,Calm,Calm,-,N/A,,Overcast,0,2013-01-17 13:55:00
8:15 AM,33.8,28.4,81,30.24,10.0,Calm,Calm,-,N/A,,Overcast,0,2013-01-17 14:15:00
8:35 AM,35.6,30.2,81,30.24,10.0,NNW,3.5,-,N/A,,Overcast,330,2013-01-17 14:35:00
8:55 AM,37.4,30.2,75,30.25,10.0,NNW,8.1,-,N/A,,Overcast,330,2013-01-17 14:55:00
9:15 AM,37.4,30.2,75,30.25,10.0,NNW,10.4,-,N/A,,Overcast,330,2013-01-17 15:15:00
9:35 AM,39.2,30.2,70,30.25,10.0,NNW,12.7,-,N/A,,Scattered Clouds,340,2013-01-17 15:35:00
9:55 AM,41.0,30.2,65,30.26,10.0,NNW,12.7,18.4,N/A,,Clear,340,2013-01-17 15:55:00
10:15 AM,41.0,32.0,70,30.26,10.0,NNW,12.7,18.4,N/A,,Clear,340,2013-01-17 16:15:00
10:35 AM,42.8,32.0,66,30.25,10.0,NNW,10.4,-,N/A,,Clear,340,2013-01-17 16:35:00
10:55 AM,42.8,32.0,66,30.25,10.0,North,13.8,-,N/A,,Clear,350,2013-01-17 16:55:00
11:15 AM,44.6,32.0,61,30.25,10.0,North,17.3,21.9,N/A,,Clear,350,2013-01-17 17:15:00
11:35 AM,44.6,33.8,66,30.25,10.0,North,15.0,-,N/A,,Clear,350,2013-01-17 17:35:00
11:55 AM,46.4,33.8,62,30.24,10.0,North,12.7,18.4,N/A,,Clear,350,2013-01-17 17:55:00
12:15 PM,46.4,33.8,62,30.23,10.0,North,15.0,-,N/A,,Clear,350,2013-01-17 18:15:00
12:35 PM,46.4,35.6,66,30.23,10.0,North,17.3,23.0,N/A,,Clear,350,2013-01-17 18:35:00
12:55 PM,46.4,35.6,66,30.24,10.0,NW,18.4,24.2,N/A,,Mostly Cloudy,320,2013-01-17 18:55:00
1:15 PM,44.6,35.6,71,30.25,10.0,NNW,13.8,-,N/A,,Overcast,330,2013-01-17 19:15:00
1:35 PM,42.8,33.8,70,30.25,10.0,NNW,17.3,23.0,N/A,,Overcast,330,2013-01-17 19:35:00
1:55 PM,42.8,33.8,70,30.26,10.0,NW,13.8,-,N/A,,Overcast,320,2013-01-17 19:55:00
2:15 PM,42.8,33.8,70,30.27,10.0,NW,19.6,25.3,N/A,,Overcast,320,2013-01-17 20:15:00
2:35 PM,44.6,35.6,71,30.28,10.0,NNW,15.0,-,N/A,,Overcast,330,2013-01-17 20:35:00
2:55 PM,44.6,33.8,66,30.28,10.0,NNW,16.1,21.9,N/A,,Mostly Cloudy,330,2013-01-17 20:55:00
3:15 PM,44.6,33.8,66,30.30,10.0,NW,17.3,-,N/A,,Scattered Clouds,320,2013-01-17 21:15:00
3:35 PM,42.8,32.0,66,30.31,10.0,NNW,13.8,21.9,N/A,,Clear,330,2013-01-17 21:35:00
3:55 PM,42.8,32.0,66,30.33,10.0,NNW,12.7,18.4,N/A,,Clear,330,2013-01-17 21:55:00
4:35 PM,42.8,28.4,57,30.35,10.0,North,12.7,21.9,N/A,,Clear,360,2013-01-17 22:35:00
4:55 PM,41.0,26.6,57,30.36,10.0,North,9.2,-,N/A,,Clear,360,2013-01-17 22:55:00
5:15 PM,39.2,26.6,61,30.38,10.0,North,5.8,-,N/A,,Clear,350,2013-01-17 23:15:00
5:35 PM,39.2,26.6,61,30.39,10.0,North,4.6,-,N/A,,Clear,350,2013-01-17 23:35:00
5:55 PM,35.6,28.4,75,30.40,10.0,North,3.5,-,N/A,,Clear,350,2013-01-17 23:55:00
6:35 PM,35.6,28.4,75,30.42,10.0,NNW,3.5,-,N/A,,Clear,330,2013-01-18 00:35:00
6:55 PM,35.6,28.4,75,30.44,10.0,NNW,3.5,-,N/A,,Clear,340,2013-01-18 00:55:00
7:15 PM,33.8,26.6,75,30.44,10.0,NNW,3.5,-,N/A,,Clear,330,2013-01-18 01:15:00
7:35 PM,35.6,26.6,70,30.45,10.0,NNW,4.6,-,N/A,,Clear,340,2013-01-18 01:35:00
7:55 PM,35.6,26.6,70,30.45,10.0,North,4.6,-,N/A,,Clear,350,2013-01-18 01:55:00
8:15 PM,33.8,26.6,75,30.47,10.0,NNW,4.6,-,N/A,,Clear,340,2013-01-18 02:15:00
8:35 PM,33.8,26.6,75,30.48,10.0,North,5.8,-,N/A,,Clear,350,2013-01-18 02:35:00
8:55 PM,35.6,26.6,70,30.49,10.0,North,4.6,-,N/A,,Clear,360,2013-01-18 02:55:00
9:15 PM,35.6,24.8,65,30.49,10.0,Calm,Calm,-,N/A,,Clear,0,2013-01-18 03:15:00
9:35 PM,33.8,24.8,70,30.49,10.0,North,4.6,-,N/A,,Clear,10,2013-01-18 03:35:00
9:55 PM,33.8,24.8,70,30.49,10.0,North,3.5,-,N/A,,Clear,360,2013-01-18 03:55:00
11:15 PM,32.0,24.8,75,30.50,10.0,Calm,Calm,-,N/A,,Clear,0,2013-01-18 05:15:00
11:35 PM,32.0,24.8,75,30.50,10.0,North,4.6,-,N/A,,Clear,360,2013-01-18 05:35:00
11:55 PM,32.0,24.8,75,30.51,10.0,North,3.5,-,N/A,,Clear,350,2013-01-18 05:55:00